BEIDOU-3 M10

Last updated on Wed May 15 2019 03:07:46 GMT+0000 (Coordinated Universal Time)

1 43582U 18062B 19134.25471061 -.00000051 00000-0 00000+0 0 9999 2 43582 54.7985 270.8800 0003247 5.7093 40.7862 1.86231985 5383

Satellite not in orbit